Observations for Trim Market St
| Time | AQI | Temp °C | Hum % | Pres Pa | CO μg/m³ | H₂S μg/m³ | NO μg/m³ | NO₂ μg/m³ | O₃ μg/m³ | SO₂ μg/m³ | PM1 μg/m³ | PM2.5 μg/m³ | PM10 μg/m³ |
|---|---|---|---|---|---|---|---|---|---|---|---|---|---|
| Thursday 13 August 2026 | |||||||||||||
| 15:12 | 2 | 42.6 | 26 | 67,337 | 0 | 7.87 | 0 | 14.45 | 84.4 | 8.45 | 0 | 3.49 | 3.84 |
| 15:11 | 2 | 42.6 | 26 | 67,325 | 0 | 3.35 | 0 | 14.39 | 105.71 | 9.45 | 0.71 | 3.49 | 3.83 |
| 15:06 | 2 | 43.1 | 25 | 67,382 | 0 | 0 | 0 | 16.39 | 72.31 | 7.08 | 0 | 2.98 | 3.28 |
| 15:05 | 2 | 43.3 | 25 | 67,404 | 0 | 0 | 0 | 17.28 | 72.94 | 7.08 | 0 | 2.98 | 3.28 |
| 14:57 | 2 | 43.3 | 25 | 67,396 | 0 | 0 | 0 | 191.19 | 0 | 0 | 0 | 3.53 | 3.89 |
| 14:56 | 2 | 43.1 | 25 | 67,388 | 0 | 0 | 0 | 163.3 | 3.79 | 0 | 0.71 | 4.07 | 4.48 |
| 14:55 | 2 | 43 | 25 | 67,384 | 0 | 0 | 0 | 14.45 | 49.61 | 7.31 | 0 | 3.52 | 3.87 |
| 14:54 | 2 | 42.9 | 26 | 67,347 | 0 | 0 | 0 | 15.6 | 93.19 | 7.24 | 0 | 2.94 | 3.23 |
| 14:53 | 2 | 42.8 | 26 | 67,359 | 0 | 0 | 0 | 14.51 | 79.1 | 8.04 | 0 | 3.48 | 3.83 |
| 14:52 | 2 | 42.8 | 26 | 67,375 | 0 | 0 | 0 | 14.71 | 101.04 | 7.94 | 0 | 2.94 | 3.23 |
| 14:51 | 2 | 42.8 | 26 | 67,369 | 0 | 0 | 0 | 14.48 | 95 | 9.25 | 0 | 2.94 | 3.24 |
| 14:50 | 2 | 42.9 | 26 | 67,361 | 0 | 0 | 0 | 14.48 | 77.67 | 8.78 | 0 | 2.95 | 3.25 |
| 14:49 | 2 | 43 | 26 | 67,349 | 0 | 9.31 | 0 | 15.4 | 85.7 | 8.33 | 0 | 3.49 | 3.84 |
| 14:48 | 2 | 43.1 | 26 | 67,331 | 0 | 1.1 | 0 | 14.58 | 91.71 | 8.15 | 0 | 3.5 | 3.85 |
| 14:47 | 2 | 43.1 | 26 | 67,333 | 0 | 0 | 0 | 14.58 | 94.31 | 7.69 | 0 | 2.95 | 3.24 |
| 14:46 | 2 | 43.1 | 26 | 67,337 | 0 | 0 | 0 | 15.47 | 88.72 | 6.9 | 0 | 2.94 | 3.23 |
| 14:45 | 2 | 43.1 | 26 | 67,339 | 0 | 0 | 0 | 14.61 | 78.57 | 7.01 | 0.71 | 3.47 | 3.82 |
| 14:44 | 2 | 43.1 | 26 | 67,312 | 0 | 0 | 0 | 14.62 | 73.55 | 7.53 | 0.71 | 3.48 | 3.83 |
| 14:42 | 2 | 42.8 | 26 | 67,306 | 0 | 0 | 0 | 14.5 | 79.55 | 7.69 | 0 | 2.93 | 3.22 |
| 14:41 | 2 | 42.6 | 27 | 67,335 | 0 | 6.84 | 0 | 14.48 | 111.88 | 9.08 | 0 | 3.46 | 3.8 |